[[{"header":{"parameterUnit":"m.s-1","parameterCategory":2,"la1":30.2991,"la2":30.254,"lo1":-89.0895,"lo2":-89.0444,"dy":0.0017,"dx":0.0017,"nx":28,"ny":28,"refTime":"2024-10-07T03:00:00:Z","depth":"0","parameterNumber":2,"parameterNumberName":"U-component_of_CURRENTS"},"data":[0,0,0,0,0,0,0,0,0,0,0,0,0,0,0,0,0,0,0,0,0,0,0,0,0,0,0,0,0,0,0,0,0,0,0,0,0,0,0,0,0,0,0,0,0,0,0,0,0,0,0,0,0,0,0,0,0,0,-0.2184,-0.2185,0,-0.2217,-0.2217,-0.2217,-0.217,-0.2169,-0.2167,-0.2166,-0.2122,-0.2122,-0.2122,0,0,0,0,0,0,0,0,0,0,0,0,0,-0.2114,-0.2115,-0.2184,-0.2185,-0.2185,-0.2217,-0.2217,-0.2217,-0.2171,-0.2169,-0.2167,-0.2166,-0.2122,-0.2122,-0.2122,0,0,0,0,0,0,0,0,0,0,0,0,0,-0.2143,-0.2116,-0.2184,-0.2168,-0.2167,-0.2217,-0.2217,-0.2217,-0.2171,-0.2169,-0.2167,-0.2165,-0.2122,-0.2122,-0.2122,-0.2166,0,0,-0.2123,-0.2123,0,0,0,0,0,0,0,0,-0.2141,-0.2145,-0.217,-0.2169,-0.2168,-0.219,-0.2176,-0.2197,-0.2171,-0.2166,-0.2166,-0.2164,-0.2141,-0.214,-0.2147,-0.2164,-0.2162,-0.2123,-0.2123,-0.2123,-0.2123,0,0,0,0,0,0,0,-0.2139,-0.2144,-0.2194,-0.2171,-0.217,-0.2171,-0.2172,-0.218,-0.2162,-0.2167,-0.2164,-0.2173,-0.2139,-0.2148,-0.2146,-0.2161,-0.2123,-0.2123,-0.2123,-0.2123,-0.219,-0.2191,0,0,0,0,0,0,-0.2142,-0.2142,-0.2193,-0.2195,-0.2152,-0.2174,-0.2175,-0.2183,-0.2163,-0.2159,-0.2175,-0.2171,-0.2148,-0.2146,-0.2144,-0.2175,-0.2123,-0.2123,-0.2124,-0.2188,-0.219,-0.2192,0,0,0,0,0,0,-0.214,-0.2146,-0.2192,-0.2171,-0.2177,-0.2177,-0.2186,-0.2185,-0.2182,-0.2171,-0.2164,-0.2173,-0.2146,-0.2144,-0.2155,-0.2173,-0.2124,-0.2124,-0.2186,-0.2189,-0.2191,-0.2249,0,0,0,0,0,0,-0.2138,-0.2145,-0.2148,-0.2172,-0.2179,-0.2228,-0.2189,-0.2187,-0.2193,-0.2187,-0.2168,-0.2162,-0.2145,-0.2156,-0.2156,-0.2173,-0.2124,-0.2184,-0.2187,-0.219,-0.2245,-0.2253,-0.226,0,0,0,0,0,-0.2135,-0.2158,-0.2148,-0.2154,-0.2184,-0.223,-0.2234,-0.2224,-0.2195,-0.2209,-0.2193,-0.2162,-0.2174,-0.2158,-0.2157,-0.2174,-0.2182,-0.2186,-0.219,-0.2241,-0.2251,-0.226,0,0,0,0,0,0,-0.2136,-0.2156,-0.2146,-0.2173,-0.2199,-0.2222,-0.2237,-0.2228,-0.2229,-0.2215,-0.2187,-0.2183,-0.2199,-0.2187,-0.2168,-0.2204,-0.2172,-0.2176,-0.2212,-0.2221,-0.2228,-0.2222,-0.2124,0,0,0,0,0,-0.2138,-0.215,-0.2178,-0.2199,-0.2214,-0.2223,-0.2236,-0.2234,-0.2242,-0.2238,-0.2229,-0.2218,-0.222,-0.2218,-0.2222,-0.2246,-0.2229,-0.2257,-0.2265,-0.2271,-0.2268,-0.2262,-0.2268,-0.2204,-0.2204,-0.2204,0,0,-0.2144,-0.2157,-0.2163,-0.2198,-0.2213,-0.2259,-0.2225,-0.2255,-0.2282,-0.2236,-0.2263,-0.2247,-0.2234,-0.2258,-0.2264,-0.2245,-0.2285,-0.2276,-0.2281,-0.2274,-0.2266,-0.2272,-0.2278,-0.2206,-0.2206,-0.2205,0,0,-0.218,-0.2176,-0.2205,-0.2235,-0.2267,-0.228,-0.229,-0.2318,-0.2314,-0.2349,-0.2315,-0.2309,-0.2327,-0.2314,-0.231,-0.2364,-0.2327,-0.2366,-0.2396,-0.2391,-0.2396,-0.2399,-0.2402,-0.2406,-0.2367,-0.2367,-0.2367,0,-0.219,-0.2224,-0.2224,-0.2273,-0.2296,-0.2293,-0.234,-0.2358,-0.2383,-0.2375,-0.2366,-0.2368,-0.2354,-0.2362,-0.2378,-0.2379,-0.2371,-0.236,-0.2399,-0.2402,-0.2405,-0.2407,-0.241,-0.2371,-0.237,-0.237,-0.237,0,-0.2253,-0.2284,-0.231,-0.2359,-0.2388,-0.2429,-0.2456,-0.247,-0.2461,-0.2464,-0.2469,-0.2457,-0.2444,-0.2449,-0.243,-0.2442,-0.243,-0.241,-0.2371,-0.2415,-0.2414,-0.2416,-0.2375,-0.2374,-0.2373,-0.2372,0,0,-0.2256,-0.2338,-0.2343,-0.2366,-0.243,-0.2453,-0.2505,-0.253,-0.2527,-0.2552,-0.2551,-0.2558,-0.2521,-0.2514,-0.2487,-0.2485,-0.2503,-0.2457,-0.2455,-0.2452,-0.2499,-0.2459,-0.2457,-0.2486,-0.2487,-0.2487,-0.2496,0,-0.2301,-0.2386,-0.2419,-0.2487,-0.2526,-0.2542,-0.2579,-0.2595,-0.2597,-0.26,-0.258,-0.2574,-0.2557,-0.2535,-0.2537,-0.2506,-0.2509,-0.2503,-0.2464,-0.2463,-0.2415,-0.2458,-0.2363,-0.236,-0.2498,-0.2498,-0.2498,0,-0.2334,-0.2384,-0.2463,-0.2513,-0.2529,-0.2571,-0.2582,-0.2616,-0.2625,-0.2619,-0.2615,-0.2598,-0.2597,-0.2572,-0.2562,-0.2558,-0.2534,-0.2517,-0.2516,-0.2455,-0.2426,-0.2336,-0.2358,-0.2348,-0.2501,-0.2501,-0.2501,0,-0.2292,-0.2394,-0.2442,-0.2472,-0.2551,-0.2565,-0.2589,-0.2607,-0.2606,-0.2619,-0.2616,-0.262,-0.2609,-0.2597,-0.2569,-0.2562,-0.2556,-0.2539,-0.2487,-0.2484,-0.2382,-0.237,-0.2377,-0.2531,-0.2531,-0.2531,-0.2531,0,-0.2302,-0.2334,-0.2422,-0.2451,-0.2471,-0.2533,-0.2536,-0.2557,-0.258,-0.2572,-0.2607,-0.2605,-0.2612,-0.2609,-0.2585,-0.2547,-0.257,-0.2498,-0.2484,-0.2403,-0.2393,-0.236,-0.2366,-0.2531,-0.2531,-0.2531,-0.2531,0,-0.2241,-0.2313,-0.2359,-0.244,-0.2453,-0.2457,-0.2493,-0.2484,-0.2533,-0.2531,-0.2536,-0.2589,-0.26,-0.2608,-0.259,-0.2555,-0.2481,-0.2503,-0.2415,-0.239,-0.2325,-0.2337,-0.2293,-0.2226,-0.2452,-0.2451,-0.245,0,-0.2221,-0.2243,-0.2315,-0.2315,-0.2351,-0.2368,-0.2363,-0.2429,-0.2431,-0.2509,-0.25,-0.2547,-0.2552,-0.2546,-0.2512,-0.2483,-0.2448,-0.2357,-0.2322,-0.2316,-0.2319,-0.2307,-0.2253,-0.222,-0.2218,-0.2216,-0.2214,0,-0.2159,-0.2179,-0.2207,-0.221,-0.2215,-0.2222,-0.224,-0.2245,-0.2322,-0.2354,-0.2398,-0.2425,-0.2468,-0.2421,-0.2405,-0.2356,-0.2293,-0.2312,-0.2318,-0.2153,-0.2125,-0.2054,-0.2237,-0.2195,-0.2197,-0.2198,-0.2199,-0.22,-0.2077,-0.2065,-0.2081,-0.2066,-0.207,-0.2054,-0.2016,-0.2074,-0.2085,-0.213,-0.2245,-0.229,-0.2313,-0.2293,-0.2255,-0.2161,-0.2181,-0.2079,-0.2102,-0.2097,-0.2008,-0.2159,-0.209,-0.2091,-0.2092,-0.2093,-0.2094,0,-0.1959,-0.1945,-0.1926,-0.1904,-0.1845,-0.1901,-0.1899,-0.1855,-0.1844,-0.1974,-0.2022,-0.2135,-0.2089,-0.212,-0.2064,-0.1976,-0.1904,-0.1916,-0.1878,-0.1835,-0.1975,-0.194,-0.1817,-0.1817,-0.1817,-0.1817,-0.1817,-0.1817,-0.1893,-0.1824,-0.181,-0.1673,-0.1651,-0.1547,-0.1521,-0.1515,-0.1572,-0.166,-0.18,-0.1956,-0.2008,-0.2107,-0.1996,-0.1892,-0.1823,-0.1756,-0.1776,-0.1893,-0.191,-0.1926,-0.1895,-0.1765,-0.1765,-0.1558,-0.1557,-0.1556]},{"header":{"parameterUnit":"m.s-1","parameterCategory":2,"la1":30.2991,"la2":30.254,"lo1":-89.0895,"lo2":-89.0444,"dy":0.0017,"dx":0.0017,"nx":28,"ny":28,"refTime":"2024-10-07T03:00:00:Z","depth":"0","parameterNumber":3,"parameterNumberName":"V-component_of_CURRENTS"},"data":[0,0,0,0,0,0,0,0,0,0,0,0,0,0,0,0,0,0,0,0,0,0,0,0,0,0,0,0,0,0,0,0,0,0,0,0,0,0,0,0,0,0,0,0,0,0,0,0,0,0,0,0,0,0,0,0,0,0,-0.0317,-0.0316,0,-0.0256,-0.0255,-0.0254,-0.0208,-0.0207,-0.0207,-0.0207,-0.0111,-0.0109,-0.0107,0,0,0,0,0,0,0,0,0,0,0,0,0,-0.035,-0.035,-0.0317,-0.0316,-0.0316,-0.0256,-0.0255,-0.0254,-0.0208,-0.0207,-0.0207,-0.0206,-0.0112,-0.0109,-0.0107,0,0,0,0,0,0,0,0,0,0,0,0,0,-0.0316,-0.035,-0.0317,-0.0286,-0.0283,-0.0256,-0.0255,-0.0254,-0.0208,-0.0207,-0.0207,-0.0206,-0.0113,-0.0109,-0.0106,-0.0095,0,0,-0.0096,-0.0094,0,0,0,0,0,0,0,0,-0.0318,-0.0315,-0.0291,-0.0288,-0.0285,-0.024,-0.0232,-0.0199,-0.0208,-0.0235,-0.0207,-0.0206,-0.0152,-0.0146,-0.0134,-0.009,-0.0086,-0.0096,-0.0093,-0.0092,-0.0091,0,0,0,0,0,0,0,-0.0321,-0.0317,-0.0291,-0.0291,-0.0287,-0.0261,-0.0256,-0.0225,-0.0195,-0.0232,-0.0229,-0.0225,-0.015,-0.0137,-0.0131,-0.0085,-0.0096,-0.0093,-0.0091,-0.0089,-0.0009,-0.0009,0,0,0,0,0,0,-0.0334,-0.0319,-0.0293,-0.029,-0.0302,-0.0261,-0.0255,-0.0254,-0.0196,-0.0188,-0.0225,-0.0223,-0.0143,-0.0135,-0.0127,-0.0105,-0.0092,-0.0089,-0.0087,-0.0009,-0.0009,-0.0009,0,0,0,0,0,0,-0.0335,-0.0332,-0.0296,-0.0304,-0.0298,-0.0261,-0.026,-0.0253,-0.024,-0.0191,-0.0182,-0.022,-0.0142,-0.0132,-0.01,-0.0101,-0.0087,-0.0084,-0.0009,-0.0009,-0.0009,-0.0062,0,0,0,0,0,0,-0.0336,-0.0333,-0.0336,-0.0305,-0.0298,-0.029,-0.026,-0.0252,-0.0239,-0.0235,-0.0184,-0.0174,-0.0141,-0.0105,-0.0097,-0.0096,-0.0082,-0.0009,-0.0009,-0.0009,-0.0061,-0.0064,-0.0067,0,0,0,0,0,-0.0337,-0.035,-0.0337,-0.0333,-0.0304,-0.0291,-0.0285,-0.0256,-0.0239,-0.0241,-0.02,-0.0176,-0.0098,-0.0103,-0.0092,-0.0091,-0.001,-0.0009,-0.0009,-0.0059,-0.0063,-0.0067,0,0,0,0,0,0,-0.0365,-0.0346,-0.033,-0.0336,-0.0317,-0.0283,-0.0283,-0.0261,-0.023,-0.0226,-0.0175,-0.0163,-0.0135,-0.0106,-0.0112,-0.0066,-0.005,-0.0047,-0.0091,-0.0095,-0.0098,-0.0109,-0.0079,0,0,0,0,0,-0.0374,-0.0377,-0.0352,-0.0355,-0.0351,-0.0317,-0.0307,-0.0289,-0.0258,-0.0244,-0.0207,-0.0165,-0.0127,-0.0106,-0.0073,-0.0048,-0.0016,-0.004,-0.0043,-0.0046,-0.0047,-0.0001,0.0,-0.0008,-0.0008,-0.0008,0,0,-0.0385,-0.0374,-0.0375,-0.0361,-0.0344,-0.0351,-0.031,-0.0304,-0.0298,-0.0239,-0.022,-0.0177,-0.0123,-0.0095,-0.008,-0.007,-0.0026,-0.0045,-0.0048,-0.0048,-0.0,0.0,0.0001,-0.0008,-0.0008,-0.0008,0,0,-0.0423,-0.0401,-0.0424,-0.0415,-0.04,-0.0376,-0.0378,-0.0348,-0.0323,-0.0302,-0.0252,-0.021,-0.0162,-0.0117,-0.0088,-0.0088,-0.0046,-0.0078,-0.0099,-0.0055,-0.0054,-0.0052,-0.0012,-0.0007,-0.0077,-0.0077,-0.0077,0,-0.0442,-0.0461,-0.0428,-0.045,-0.0446,-0.0394,-0.0416,-0.0385,-0.0345,-0.0316,-0.0306,-0.0212,-0.0171,-0.0116,-0.0115,-0.0095,-0.0065,-0.0092,-0.0059,-0.0057,-0.0055,-0.0014,-0.0008,-0.008,-0.0079,-0.0079,-0.0079,0,-0.0499,-0.0513,-0.0526,-0.0533,-0.0521,-0.0531,-0.0487,-0.0463,-0.0424,-0.0383,-0.0325,-0.0262,-0.0202,-0.0182,-0.0149,-0.0106,-0.0089,-0.0073,-0.0054,-0.0058,-0.0014,-0.0006,-0.0083,-0.0082,-0.0082,-0.0081,0,0,-0.0547,-0.0567,-0.057,-0.0585,-0.0566,-0.0561,-0.0541,-0.0499,-0.0471,-0.042,-0.0381,-0.0307,-0.0258,-0.0223,-0.0168,-0.0126,-0.0085,-0.0098,-0.0095,-0.0065,0.0011,0.0052,0.0065,-0.0065,-0.0064,-0.0063,0.0034,0,-0.0605,-0.0669,-0.0649,-0.0685,-0.0712,-0.065,-0.0629,-0.0576,-0.0516,-0.0463,-0.0374,-0.0322,-0.0276,-0.0245,-0.0195,-0.011,-0.0067,-0.0113,0.0017,0.0021,0.0052,0.0074,0.0102,0.0193,0.0042,0.0043,0.0044,0,-0.0665,-0.07,-0.0761,-0.0756,-0.0757,-0.0761,-0.07,-0.0673,-0.0573,-0.0523,-0.0446,-0.0374,-0.0288,-0.0261,-0.012,-0.0152,-0.0079,-0.0017,-0.0011,0.0051,0.0076,0.0175,0.0213,0.0368,0.0057,0.0056,0.0055,0,-0.0721,-0.0763,-0.0812,-0.0819,-0.0813,-0.0805,-0.078,-0.0694,-0.0656,-0.0559,-0.0524,-0.0406,-0.0349,-0.0242,-0.0107,-0.0113,0.004,0.0051,0.0158,0.0161,0.0224,0.0231,0.0423,0.014,0.014,0.014,0.0139,0,-0.0787,-0.0821,-0.0845,-0.0878,-0.0901,-0.0864,-0.085,-0.0798,-0.0719,-0.0676,-0.0563,-0.0513,-0.0344,-0.0231,-0.0116,0.0051,0.0038,0.0162,0.0194,0.0206,0.021,0.0379,0.0433,0.0143,0.0143,0.0142,0.0141,0,-0.0842,-0.0863,-0.0921,-0.094,-0.0939,-0.0953,-0.0912,-0.0888,-0.0811,-0.0756,-0.073,-0.0583,-0.0428,-0.0254,-0.0068,0.0042,0.0288,0.0249,0.0251,0.0282,0.0526,0.0574,0.0779,0.0853,0.0389,0.0391,0.0392,0,-0.0878,-0.0921,-0.0976,-0.1001,-0.1015,-0.1021,-0.1011,-0.0944,-0.0915,-0.0801,-0.0781,-0.062,-0.0495,-0.0198,0.0032,0.0262,0.0365,0.0414,0.0414,0.0558,0.0635,0.0665,0.0714,0.0476,0.0478,0.0479,0.0481,0,-0.0944,-0.0964,-0.1013,-0.1071,-0.109,-0.1101,-0.1088,-0.1081,-0.0991,-0.0941,-0.0848,-0.0743,-0.0432,-0.0147,0.0168,0.0306,0.0531,0.0454,0.0612,0.0731,0.0769,0.0848,0.0387,0.0495,0.0493,0.0492,0.0492,0.0491,-0.0974,-0.1025,-0.1082,-0.1124,-0.1149,-0.1165,-0.1169,-0.1147,-0.1112,-0.1023,-0.0916,-0.0739,-0.03,0.0157,0.0325,0.0709,0.0668,0.082,0.087,0.089,0.0962,0.053,0.0666,0.0665,0.0665,0.0664,0.0664,0,-0.1002,-0.1057,-0.1116,-0.1171,-0.1196,-0.1195,-0.1197,-0.119,-0.1164,-0.1065,-0.0958,-0.0499,-0.0058,0.0355,0.0899,0.1111,0.1148,0.1216,0.1276,0.1307,0.0945,0.095,0.1144,0.1144,0.1143,0.1143,0.1143,0.1143,-0.1015,-0.1086,-0.1124,-0.1184,-0.1213,-0.1234,-0.1235,-0.123,-0.1166,-0.0995,-0.0763,-0.058,0.0059,0.0958,0.1471,0.1516,0.1676,0.1667,0.1751,0.1514,0.1481,0.1449,0.1471,0.177,0.1771,0.2096,0.21,0.2102]}],[{"header":{"parameterUnit":"m.s-1","parameterCategory":2,"la1":30.2991,"la2":30.254,"lo1":-89.0895,"lo2":-89.0444,"dy":0.0017,"dx":0.0017,"nx":28,"ny":28,"refTime":"2024-10-07T03:00:00:Z","depth":"2","parameterNumber":2,"parameterNumberName":"U-component_of_CURRENTS"},"data":[0,0,0,0,0,0,0,0,0,0,0,0,0,0,0,0,0,0,0,0,0,0,0,0,0,0,0,0,0,0,0,0,0,0,0,0,0,0,0,0,0,0,0,0,0,0,0,0,0,0,0,0,0,0,0,0,0,0,-0.2102,-0.2102,0,-0.2133,-0.2133,-0.2133,-0.2093,-0.2092,-0.2091,-0.2089,-0.2053,-0.2053,-0.2053,0,0,0,0,0,0,0,0,0,0,0,0,0,-0.2036,-0.2037,-0.2102,-0.2102,-0.2103,-0.2132,-0.2133,-0.2133,-0.2093,-0.2092,-0.209,-0.2089,-0.2053,-0.2053,-0.2053,0,0,0,0,0,0,0,0,0,0,0,0,0,-0.2063,-0.2038,-0.2101,-0.2089,-0.2088,-0.2132,-0.2133,-0.2133,-0.2093,-0.2092,-0.209,-0.2088,-0.2053,-0.2053,-0.2053,-0.2091,0,0,-0.2054,-0.2054,0,0,0,0,0,0,0,0,-0.2062,-0.2065,-0.209,-0.209,-0.2089,-0.2109,-0.2097,-0.2116,-0.2094,-0.2089,-0.2089,-0.2087,-0.2069,-0.2068,-0.2075,-0.2089,-0.2088,-0.2054,-0.2054,-0.2054,-0.2054,0,0,0,0,0,0,0,-0.206,-0.2064,-0.2111,-0.2091,-0.209,-0.2091,-0.2092,-0.21,-0.2085,-0.2089,-0.2087,-0.2095,-0.2067,-0.2074,-0.2073,-0.2087,-0.2054,-0.2054,-0.2054,-0.2054,-0.2119,-0.2121,0,0,0,0,0,0,-0.2062,-0.2062,-0.211,-0.2112,-0.2074,-0.2094,-0.2095,-0.2102,-0.2086,-0.2084,-0.2097,-0.2093,-0.2075,-0.2073,-0.2072,-0.2104,-0.2054,-0.2055,-0.2055,-0.2118,-0.2119,-0.2121,0,0,0,0,0,0,-0.2061,-0.2066,-0.2109,-0.209,-0.2096,-0.2097,-0.2106,-0.2104,-0.2103,-0.2093,-0.2088,-0.2096,-0.2073,-0.2071,-0.2084,-0.2102,-0.2055,-0.2055,-0.2116,-0.2118,-0.212,-0.2176,0,0,0,0,0,0,-0.2059,-0.2065,-0.2069,-0.209,-0.2097,-0.2141,-0.2108,-0.2106,-0.2113,-0.2108,-0.2092,-0.2087,-0.2072,-0.2084,-0.2084,-0.2102,-0.2055,-0.2114,-0.2117,-0.212,-0.2172,-0.218,-0.2186,0,0,0,0,0,-0.2056,-0.2076,-0.2069,-0.2074,-0.2102,-0.2142,-0.2146,-0.2138,-0.2115,-0.2128,-0.2116,-0.2087,-0.2103,-0.2086,-0.2086,-0.2104,-0.2112,-0.2116,-0.2119,-0.2169,-0.2178,-0.2186,0,0,0,0,0,0,-0.2055,-0.2075,-0.2067,-0.2091,-0.2115,-0.2136,-0.2149,-0.2143,-0.2145,-0.2134,-0.2111,-0.2108,-0.2125,-0.2114,-0.2096,-0.2133,-0.2102,-0.2106,-0.214,-0.2148,-0.2155,-0.215,-0.2055,0,0,0,0,0,-0.2057,-0.2068,-0.2094,-0.2113,-0.2127,-0.2136,-0.2148,-0.2148,-0.2156,-0.2154,-0.2147,-0.214,-0.2145,-0.2144,-0.2148,-0.2172,-0.2156,-0.2184,-0.2191,-0.2197,-0.2194,-0.2191,-0.2197,-0.2133,-0.2133,-0.2133,0,0,-0.2061,-0.2074,-0.2079,-0.2112,-0.2126,-0.2167,-0.2138,-0.2166,-0.2192,-0.2152,-0.2179,-0.2168,-0.2158,-0.2183,-0.2189,-0.2171,-0.2212,-0.2202,-0.2207,-0.22,-0.2195,-0.2201,-0.2207,-0.2135,-0.2135,-0.2134,0,0,-0.2092,-0.2089,-0.2116,-0.2142,-0.2172,-0.2185,-0.2194,-0.2221,-0.222,-0.2254,-0.2227,-0.2226,-0.2244,-0.2235,-0.2233,-0.2285,-0.2252,-0.2288,-0.2317,-0.2315,-0.2319,-0.2323,-0.2326,-0.2329,-0.229,-0.229,-0.229,0,-0.2099,-0.213,-0.2132,-0.2175,-0.2196,-0.2197,-0.2239,-0.2256,-0.2282,-0.2279,-0.227,-0.2281,-0.2269,-0.2283,-0.2299,-0.23,-0.2293,-0.2282,-0.2322,-0.2326,-0.2329,-0.233,-0.2333,-0.2293,-0.2292,-0.2292,-0.2292,0,-0.2154,-0.2181,-0.2204,-0.2249,-0.2277,-0.2313,-0.234,-0.2355,-0.2352,-0.2358,-0.237,-0.2362,-0.2356,-0.2362,-0.2346,-0.2363,-0.2351,-0.2332,-0.2296,-0.2338,-0.2338,-0.234,-0.2297,-0.2296,-0.2295,-0.2294,0,0,-0.2156,-0.2228,-0.2233,-0.2254,-0.2313,-0.2334,-0.2383,-0.2412,-0.2414,-0.2439,-0.2445,-0.2457,-0.2429,-0.2425,-0.2404,-0.2404,-0.2424,-0.2379,-0.2377,-0.2373,-0.2424,-0.2381,-0.2379,-0.241,-0.241,-0.241,-0.242,0,-0.2193,-0.2267,-0.23,-0.2361,-0.2394,-0.2413,-0.245,-0.247,-0.2477,-0.2487,-0.2475,-0.2478,-0.2462,-0.2448,-0.2451,-0.2426,-0.243,-0.2423,-0.2389,-0.2388,-0.2339,-0.2381,-0.2172,-0.2159,-0.2422,-0.2422,-0.2422,0,-0.2223,-0.2266,-0.2336,-0.2384,-0.24,-0.244,-0.2459,-0.2493,-0.251,-0.251,-0.2514,-0.2504,-0.251,-0.2486,-0.2481,-0.2477,-0.2455,-0.2441,-0.244,-0.2378,-0.235,-0.2157,-0.2153,-0.2425,-0.2425,-0.2425,-0.2425,0,-0.2184,-0.2274,-0.2319,-0.2345,-0.2419,-0.2436,-0.2462,-0.2488,-0.2493,-0.2515,-0.2517,-0.2529,-0.2523,-0.2514,-0.2491,-0.2484,-0.2482,-0.2465,-0.2413,-0.241,-0.2213,-0.2192,-0.246,-0.246,-0.246,-0.246,-0.246,0,-0.2192,-0.2221,-0.2301,-0.2326,-0.2348,-0.2409,-0.2421,-0.2444,-0.2475,-0.2475,-0.2514,-0.2516,-0.2528,-0.2528,-0.2507,-0.2471,-0.2495,-0.2423,-0.2409,-0.223,-0.2211,-0.242,-0.2415,-0.246,-0.246,-0.246,-0.246,0,-0.2138,-0.2202,-0.2241,-0.2317,-0.2332,-0.2338,-0.2382,-0.238,-0.2433,-0.2439,-0.2447,-0.2503,-0.2516,-0.2527,-0.2514,-0.2479,-0.2453,-0.2429,-0.2226,-0.2188,-0.2381,-0.2379,-0.2379,-0.2377,-0.2376,-0.2375,-0.2374,0,-0.2121,-0.214,-0.2203,-0.2202,-0.2235,-0.2258,-0.226,-0.233,-0.2336,-0.2419,-0.2412,-0.2463,-0.2466,-0.2462,-0.2412,-0.2379,-0.2431,-0.2163,-0.2112,-0.2386,-0.2373,-0.2373,-0.2373,-0.1878,-0.1873,-0.1869,-0.1866,0,-0.2063,-0.2081,-0.2104,-0.2105,-0.2112,-0.2122,-0.2147,-0.2154,-0.2236,-0.2267,-0.2311,-0.2336,-0.2361,-0.2244,-0.2221,-0.2165,-0.2156,-0.2083,-0.2401,-0.1943,-0.1917,-0.1904,-0.1919,-0.183,-0.1834,-0.1836,-0.1838,-0.184,-0.1991,-0.1975,-0.1988,-0.1972,-0.1978,-0.1966,-0.1932,-0.1987,-0.2,-0.2024,-0.2139,-0.2121,-0.2118,-0.1996,-0.1908,-0.1837,-0.1991,-0.187,-0.188,-0.1895,-0.1847,-0.1823,-0.1709,-0.1712,-0.1714,-0.1716,-0.1718,0,-0.1879,-0.1865,-0.1846,-0.182,-0.1766,-0.1822,-0.1825,-0.1774,-0.1756,-0.183,-0.1856,-0.1695,-0.1638,-0.1654,-0.15,-0.1478,-0.1437,-0.1401,-0.1331,-0.1367,-0.1399,-0.1324,-0.1048,-0.1046,-0.1044,-0.1043,0,0,-0.1818,-0.1751,-0.1734,-0.1603,-0.1585,-0.1486,-0.1462,-0.1434,-0.1446,-0.1412,-0.1415,-0.1551,-0.1604,-0.1326,-0.1258,-0.1133,-0.1233,-0.1069,-0.1604,-0.1556,-0.1586,-0.1664,-0.159,0,0,0,0,0]},{"header":{"parameterUnit":"m.s-1","parameterCategory":2,"la1":30.2991,"la2":30.254,"lo1":-89.0895,"lo2":-89.0444,"dy":0.0017,"dx":0.0017,"nx":28,"ny":28,"refTime":"2024-10-07T03:00:00:Z","depth":"2","parameterNumber":3,"parameterNumberName":"V-component_of_CURRENTS"},"data":[0,0,0,0,0,0,0,0,0,0,0,0,0,0,0,0,0,0,0,0,0,0,0,0,0,0,0,0,0,0,0,0,0,0,0,0,0,0,0,0,0,0,0,0,0,0,0,0,0,0,0,0,0,0,0,0,0,0,-0.0205,-0.0205,0,-0.0146,-0.0146,-0.0145,-0.0102,-0.0102,-0.0102,-0.0101,-0.0011,-0.0009,-0.0007,0,0,0,0,0,0,0,0,0,0,0,0,0,-0.0239,-0.0238,-0.0205,-0.0205,-0.0204,-0.0147,-0.0146,-0.0145,-0.0102,-0.0102,-0.0102,-0.0101,-0.0012,-0.0009,-0.0006,0,0,0,0,0,0,0,0,0,0,0,0,0,-0.0205,-0.0238,-0.0205,-0.0177,-0.0174,-0.0147,-0.0146,-0.0144,-0.0102,-0.0102,-0.0102,-0.0101,-0.0013,-0.0009,-0.0006,0.0007,0,0,0.0004,0.0005,0,0,0,0,0,0,0,0,-0.0207,-0.0204,-0.0182,-0.0179,-0.0175,-0.0133,-0.0124,-0.0093,-0.0102,-0.0128,-0.0101,-0.0101,-0.005,-0.0043,-0.0032,0.0011,0.0015,0.0004,0.0006,0.0008,0.0009,0,0,0,0,0,0,0,-0.021,-0.0206,-0.0181,-0.0181,-0.0177,-0.0153,-0.0148,-0.0118,-0.009,-0.0126,-0.0123,-0.0119,-0.0048,-0.0035,-0.0029,0.0017,0.0004,0.0007,0.0009,0.001,0.0088,0.0088,0,0,0,0,0,0,-0.0222,-0.0209,-0.0182,-0.0179,-0.0192,-0.0153,-0.0147,-0.0146,-0.0091,-0.0083,-0.0119,-0.0117,-0.0041,-0.0033,-0.0026,-0.0004,0.0008,0.0011,0.0013,0.0088,0.0088,0.0088,0,0,0,0,0,0,-0.0223,-0.0221,-0.0185,-0.0193,-0.0187,-0.0153,-0.0151,-0.0145,-0.0133,-0.0086,-0.0077,-0.0115,-0.004,-0.003,0.0,-0.0001,0.0012,0.0015,0.0088,0.0088,0.0088,0.0037,0,0,0,0,0,0,-0.0225,-0.0222,-0.0225,-0.0194,-0.0187,-0.0178,-0.0151,-0.0144,-0.0132,-0.0129,-0.008,-0.0071,-0.0039,-0.0005,0.0003,0.0004,0.0018,0.0088,0.0088,0.0088,0.0039,0.0036,0.0033,0,0,0,0,0,-0.0226,-0.0237,-0.0225,-0.0222,-0.0193,-0.0178,-0.0172,-0.0145,-0.0132,-0.0133,-0.0096,-0.0073,0.0002,-0.0002,0.0008,0.0009,0.0088,0.0088,0.0088,0.004,0.0036,0.0033,0,0,0,0,0,0,-0.0251,-0.0232,-0.022,-0.0223,-0.0205,-0.0172,-0.0171,-0.0151,-0.0122,-0.0119,-0.0071,-0.006,-0.0034,-0.0005,-0.0012,0.0033,0.0049,0.0051,0.0009,0.0006,0.0003,-0.0008,0.002,0,0,0,0,0,-0.0259,-0.0262,-0.0238,-0.024,-0.0235,-0.0204,-0.0194,-0.0177,-0.0148,-0.0135,-0.01,-0.0061,-0.0025,-0.0005,0.0027,0.0051,0.0083,0.0059,0.0056,0.0053,0.0052,0.0098,0.0099,0.0089,0.0089,0.0089,0,0,-0.0268,-0.0259,-0.0259,-0.0245,-0.0229,-0.0233,-0.0197,-0.019,-0.0184,-0.013,-0.0112,-0.0073,-0.0022,0.0005,0.002,0.0029,0.0073,0.0053,0.005,0.0051,0.0098,0.0099,0.01,0.0089,0.0089,0.0089,0,0,-0.03,-0.0282,-0.0302,-0.0293,-0.0278,-0.0256,-0.0258,-0.0229,-0.0207,-0.0186,-0.0142,-0.0103,-0.0057,-0.0014,0.0012,0.0013,0.0053,0.0022,0.0002,0.0046,0.0047,0.0048,0.0087,0.0092,0.0023,0.0023,0.0023,0,-0.0316,-0.0334,-0.0304,-0.0323,-0.0319,-0.0273,-0.0292,-0.0262,-0.0225,-0.02,-0.0191,-0.0104,-0.0065,-0.0014,-0.0013,0.0006,0.0035,0.0009,0.0041,0.0043,0.0046,0.0085,0.0092,0.002,0.0021,0.0021,0.0021,0,-0.0364,-0.0378,-0.0389,-0.0395,-0.0383,-0.0391,-0.0351,-0.033,-0.0297,-0.026,-0.0207,-0.0148,-0.0094,-0.0075,-0.0044,-0.0003,0.0012,0.0029,0.0047,0.0043,0.0085,0.0093,0.0017,0.0018,0.0018,0.0019,0,0,-0.0404,-0.0424,-0.0427,-0.0442,-0.0424,-0.042,-0.04,-0.0364,-0.0342,-0.0293,-0.0259,-0.019,-0.0147,-0.0113,-0.0062,-0.0021,0.0019,0.0005,0.0008,0.0037,0.0113,0.0148,0.016,0.0039,0.004,0.0041,0.0134,0,-0.0455,-0.0513,-0.0496,-0.053,-0.0555,-0.05,-0.0482,-0.0435,-0.0382,-0.0335,-0.0252,-0.0205,-0.0163,-0.0136,-0.0087,-0.0005,0.0037,-0.0009,0.0118,0.0122,0.0149,0.017,0.0145,0.0228,0.0142,0.0143,0.0144,0,-0.0509,-0.0541,-0.0598,-0.0599,-0.06,-0.0605,-0.0556,-0.0532,-0.0442,-0.0397,-0.0326,-0.0258,-0.0176,-0.015,-0.0014,-0.0045,0.0026,0.0086,0.0091,0.0148,0.0171,0.022,0.0246,0.0157,0.0156,0.0155,0.0155,0,-0.0563,-0.0602,-0.065,-0.0657,-0.0654,-0.0651,-0.0631,-0.0555,-0.0523,-0.0435,-0.0403,-0.0291,-0.0237,-0.0133,-0.0003,-0.0008,0.0141,0.0152,0.0253,0.0256,0.0273,0.0276,0.0241,0.0241,0.024,0.024,0.024,0,-0.0625,-0.0659,-0.0684,-0.0716,-0.0744,-0.0711,-0.0705,-0.0659,-0.0589,-0.0552,-0.0444,-0.0397,-0.0233,-0.0122,-0.0012,0.0149,0.0139,0.0257,0.0287,0.0254,0.0255,0.0222,0.0218,0.0244,0.0243,0.0242,0.0242,0,-0.068,-0.07,-0.0757,-0.0778,-0.0781,-0.0799,-0.0769,-0.0751,-0.0681,-0.0633,-0.0609,-0.0466,-0.0317,-0.0148,0.0033,0.014,0.0285,0.0339,0.0289,0.0313,0.0371,0.0364,0.0468,0.047,0.0472,0.0473,0.0474,0,-0.0717,-0.076,-0.0815,-0.0841,-0.0857,-0.087,-0.0868,-0.0808,-0.0783,-0.0677,-0.0658,-0.0504,-0.0383,-0.0096,0.012,0.0341,0.0331,0.044,0.0433,0.0378,0.0397,0.0387,0.0377,0.0433,0.0434,0.0435,0.0435,0,-0.0783,-0.0804,-0.0852,-0.0913,-0.0937,-0.0953,-0.0948,-0.0943,-0.0861,-0.0814,-0.0724,-0.0623,-0.0329,-0.0079,0.022,0.0342,0.0407,0.0462,0.0429,0.0378,0.0353,0.0369,0.0359,0.0441,0.0441,0.044,0.044,0.044,-0.0817,-0.0867,-0.0925,-0.0972,-0.1001,-0.1021,-0.1029,-0.1006,-0.0974,-0.0877,-0.0781,-0.0603,-0.0344,0.0086,0.0287,0.0485,0.0486,0.0536,0.0531,0.0525,0.0503,0.0483,0.0591,0.0591,0.0591,0.0591,0.0592,0,-0.0847,-0.0904,-0.0967,-0.1024,-0.1052,-0.1056,-0.1062,-0.1042,-0.1011,-0.0904,-0.0792,-0.05,-0.0204,0.0059,0.0383,0.0573,0.0549,0.0594,0.0525,0.0519,0.0514,0.0488,0.0573,0.0574,0.0574,0.0574,0,0,-0.0863,-0.0935,-0.0973,-0.1039,-0.1075,-0.1096,-0.1098,-0.1063,-0.0985,-0.088,-0.0741,-0.0529,-0.0199,0.0023,0.0262,0.0424,0.0415,0.0435,0.0433,0.0318,0.031,0.047,0.0422,0,0,0,0,0]}],[{"header":{"parameterUnit":"m.s-1","parameterCategory":2,"la1":30.2991,"la2":30.254,"lo1":-89.0895,"lo2":-89.0444,"dy":0.0017,"dx":0.0017,"nx":28,"ny":28,"refTime":"2024-10-07T03:00:00:Z","depth":"4","parameterNumber":2,"parameterNumberName":"U-component_of_CURRENTS"},"data":[0,0,0,0,0,0,0,0,0,0,0,0,0,0,0,0,0,0,0,0,0,0,0,0,0,0,0,0,0,0,0,0,0,0,0,0,0,0,0,0,0,0,0,0,0,0,0,0,0,0,0,0,0,0,0,0,0,0,-0.1492,-0.1492,0,-0.155,-0.155,-0.1551,-0.1574,-0.1574,-0.1574,-0.1574,-0.1616,-0.1618,-0.1619,0,0,0,0,0,0,0,0,0,0,0,0,0,-0.1417,-0.1418,-0.1492,-0.1492,-0.1493,-0.155,-0.155,-0.1551,-0.1574,-0.1574,-0.1574,-0.1574,-0.1616,-0.1617,-0.1619,0,0,0,0,0,0,0,0,0,0,0,0,0,-0.1458,-0.1418,-0.1491,-0.1513,-0.1516,-0.1549,-0.155,-0.1551,-0.1574,-0.1574,-0.1574,-0.1574,-0.1616,-0.1617,-0.1619,-0.1629,0,0,-0.1624,-0.1625,0,0,0,0,0,0,0,0,-0.1456,-0.1461,-0.1509,-0.1512,-0.1515,-0.1556,-0.154,-0.1577,-0.1574,-0.155,-0.1574,-0.1574,-0.1596,-0.1599,-0.1608,-0.1631,-0.1633,-0.1624,-0.1625,-0.1626,-0.1626,0,0,0,0,0,0,0,-0.1453,-0.1458,-0.1513,-0.151,-0.1513,-0.1525,-0.1531,-0.1547,-0.1571,-0.1552,-0.1555,-0.1564,-0.1597,-0.1606,-0.1609,-0.1633,-0.1624,-0.1626,-0.1627,-0.1627,-0.173,-0.1732,0,0,0,0,0,0,-0.1448,-0.1456,-0.1511,-0.1515,-0.1486,-0.1527,-0.1533,-0.1541,-0.1571,-0.1576,-0.1564,-0.1564,-0.1603,-0.1607,-0.1611,-0.1682,-0.1626,-0.1628,-0.1628,-0.1728,-0.173,-0.1732,0,0,0,0,0,0,-0.1446,-0.1453,-0.1509,-0.1488,-0.1496,-0.1528,-0.1538,-0.1543,-0.1574,-0.158,-0.1584,-0.1592,-0.1604,-0.1608,-0.1651,-0.1681,-0.1628,-0.163,-0.1726,-0.1729,-0.1731,-0.1786,0,0,0,0,0,0,-0.1444,-0.1452,-0.1469,-0.1487,-0.1497,-0.1542,-0.1538,-0.1544,-0.1579,-0.1581,-0.1605,-0.1608,-0.1604,-0.1649,-0.1653,-0.1682,-0.1631,-0.1724,-0.1727,-0.173,-0.1782,-0.179,-0.1797,0,0,0,0,0,-0.1441,-0.1461,-0.1469,-0.1476,-0.1515,-0.1544,-0.155,-0.1571,-0.158,-0.1599,-0.1622,-0.1608,-0.1672,-0.1652,-0.1656,-0.1687,-0.1722,-0.1726,-0.173,-0.1779,-0.1789,-0.1797,0,0,0,0,0,0,-0.144,-0.1466,-0.1475,-0.1503,-0.1528,-0.1548,-0.1573,-0.1586,-0.162,-0.1629,-0.1632,-0.1637,-0.1684,-0.1682,-0.166,-0.1727,-0.1695,-0.1699,-0.173,-0.174,-0.1747,-0.1737,-0.1632,0,0,0,0,0,-0.1447,-0.1469,-0.1493,-0.1518,-0.1532,-0.1557,-0.1577,-0.1592,-0.1618,-0.1634,-0.1654,-0.1677,-0.17,-0.1718,-0.1735,-0.1774,-0.176,-0.1797,-0.1805,-0.1811,-0.1807,-0.1816,-0.1823,-0.1745,-0.1745,-0.1745,0,0,-0.1454,-0.1473,-0.1486,-0.152,-0.1542,-0.1562,-0.157,-0.1606,-0.1631,-0.1633,-0.1684,-0.1705,-0.1717,-0.176,-0.1781,-0.1765,-0.1829,-0.1816,-0.1821,-0.1814,-0.182,-0.1828,-0.1834,-0.1747,-0.1747,-0.1747,0,0,-0.1461,-0.1496,-0.1507,-0.153,-0.1567,-0.1587,-0.1603,-0.1639,-0.1667,-0.1713,-0.1724,-0.1765,-0.1802,-0.1819,-0.183,-0.1891,-0.1867,-0.1903,-0.1935,-0.1944,-0.195,-0.1955,-0.1955,-0.1959,-0.1908,-0.1908,-0.1909,0,-0.1462,-0.1486,-0.1517,-0.1531,-0.156,-0.1599,-0.1621,-0.1652,-0.1702,-0.1737,-0.1736,-0.1814,-0.1825,-0.1878,-0.19,-0.1907,-0.1904,-0.1898,-0.1952,-0.1957,-0.1961,-0.1959,-0.1963,-0.1912,-0.1911,-0.1911,-0.1911,0,-0.1461,-0.1495,-0.1509,-0.154,-0.1578,-0.1609,-0.1654,-0.1706,-0.1748,-0.1777,-0.185,-0.1873,-0.1918,-0.1934,-0.1935,-0.1984,-0.1971,-0.1958,-0.1924,-0.1972,-0.1967,-0.1971,-0.1916,-0.1915,-0.1914,-0.1913,0,0,-0.1416,-0.149,-0.1496,-0.1528,-0.159,-0.1621,-0.1685,-0.1753,-0.1805,-0.1854,-0.1912,-0.1963,-0.1985,-0.1999,-0.2014,-0.2026,-0.2057,-0.201,-0.2009,-0.2,-0.2075,-0.194,-0.193,-0.2056,-0.2057,-0.2058,-0.2062,0,-0.1402,-0.1439,-0.1485,-0.1543,-0.1573,-0.165,-0.171,-0.1783,-0.1845,-0.1911,-0.1953,-0.2006,-0.2006,-0.2036,-0.2052,-0.2057,-0.2068,-0.2057,-0.2037,-0.2036,-0.1903,-0.193,-0.206,-0.2064,-0.2065,-0.2065,-0.2066,0,-0.1376,-0.1413,-0.1461,-0.1569,-0.1591,-0.1639,-0.1764,-0.1819,-0.192,-0.1969,-0.2031,-0.2057,-0.2104,-0.2084,-0.2112,-0.2107,-0.2096,-0.2089,-0.2089,-0.1941,-0.1906,-0.2006,-0.2071,-0.2071,-0.207,-0.207,-0.2069,0,-0.1325,-0.1404,-0.1452,-0.1481,-0.1594,-0.1656,-0.1729,-0.1843,-0.1903,-0.2004,-0.2044,-0.2105,-0.2131,-0.2136,-0.2127,-0.2126,-0.2132,-0.2126,-0.1995,-0.1986,-0.2082,-0.2076,-0.2133,-0.2133,-0.2133,-0.2133,-0.2133,0,-0.1286,-0.1324,-0.1441,-0.1462,-0.1549,-0.164,-0.1741,-0.1825,-0.193,-0.1983,-0.2065,-0.2092,-0.2144,-0.2152,-0.214,-0.2068,-0.2144,-0.1994,-0.1974,-0.2107,-0.2105,-0.2084,-0.2079,-0.2133,-0.2133,-0.2133,-0.2133,0,-0.1208,-0.1278,-0.1344,-0.1475,-0.1524,-0.1587,-0.1739,-0.1799,-0.1911,-0.1975,-0.2003,-0.209,-0.2098,-0.2126,-0.213,-0.2063,-0.2022,-0.1978,-0.2118,-0.2107,-0.187,-0.1868,-0.1831,-0.1826,-0.1822,-0.1818,-0.1815,0,-0.1169,-0.1193,-0.1336,-0.1389,-0.1451,-0.1562,-0.1634,-0.1773,-0.1821,-0.1947,-0.195,-0.2009,-0.2046,-0.1942,-0.199,-0.1955,-0.1932,-0.1897,-0.188,-0.1853,-0.1838,-0.1842,-0.1845,-0.1809,-0.1808,-0.1807,-0.1806,0,-0.1092,-0.1152,-0.1202,-0.1315,-0.1402,-0.1485,-0.1588,-0.1609,-0.1742,-0.1855,-0.1845,-0.1843,-0.1849,-0.1847,-0.1831,-0.1806,-0.1911,-0.1854,-0.1862,-0.1846,-0.1826,-0.1816,-0.1824,-0.1791,-0.1794,-0.1795,-0.1796,0,-0.1037,-0.1055,-0.114,-0.1228,-0.1326,-0.1369,-0.1445,-0.1494,-0.1554,-0.1685,-0.1673,-0.174,-0.1823,-0.1768,-0.1752,-0.1718,-0.1694,-0.163,-0.165,-0.1666,-0.1609,-0.1559,-0.1417,0,0,0,0,0,-0.0984,-0.0989,-0.1057,-0.1135,-0.1224,-0.1279,-0.1395,-0.1465,-0.1581,-0.1528,-0.1598,-0.1595,-0.1576,-0.1615,-0.1545,-0.168,-0.1702,-0.159,-0.164,-0.1713,-0.1729,-0.1676,0,0,0,0,0,0,-0.094,-0.0984,-0.101,-0.1034,-0.1066,-0.1142,-0.1203,-0.1287,-0.1271,-0.1394,-0.1394,-0.1485,-0.1496,-0.1588,-0.1506,-0.1517,-0.1511,-0.1642,-0.1637,-0.1704,-0.1719,-0.1732,-0.1683,0,0,0,0,0]},{"header":{"parameterUnit":"m.s-1","parameterCategory":2,"la1":30.2991,"la2":30.254,"lo1":-89.0895,"lo2":-89.0444,"dy":0.0017,"dx":0.0017,"nx":28,"ny":28,"refTime":"2024-10-07T03:00:00:Z","depth":"4","parameterNumber":3,"parameterNumberName":"V-component_of_CURRENTS"},"data":[0,0,0,0,0,0,0,0,0,0,0,0,0,0,0,0,0,0,0,0,0,0,0,0,0,0,0,0,0,0,0,0,0,0,0,0,0,0,0,0,0,0,0,0,0,0,0,0,0,0,0,0,0,0,0,0,0,0,-0.0059,-0.0059,0,-0.0022,-0.0021,-0.0021,0.0008,0.0008,0.0008,0.0008,0.0076,0.0078,0.008,0,0,0,0,0,0,0,0,0,0,0,0,0,-0.0079,-0.0078,-0.0059,-0.0059,-0.0058,-0.0022,-0.0021,-0.0021,0.0008,0.0008,0.0008,0.0009,0.0076,0.0078,0.008,0,0,0,0,0,0,0,0,0,0,0,0,0,-0.0058,-0.0078,-0.0059,-0.004,-0.0038,-0.0022,-0.0021,-0.0021,0.0008,0.0008,0.0008,0.0009,0.0075,0.0078,0.008,0.009,0,0,0.0088,0.0089,0,0,0,0,0,0,0,0,-0.0059,-0.0057,-0.0044,-0.0042,-0.0039,-0.0012,-0.0003,0.0017,0.0008,-0.0009,0.0008,0.0009,0.0049,0.0053,0.0061,0.0093,0.0096,0.0088,0.0089,0.009,0.0091,0,0,0,0,0,0,0,-0.0061,-0.0058,-0.0043,-0.0043,-0.0041,-0.0025,-0.0022,0.0001,0.0019,-0.0007,-0.0005,-0.0003,0.005,0.0058,0.0063,0.0097,0.0088,0.009,0.0091,0.0092,0.0149,0.0149,0,0,0,0,0,0,-0.0069,-0.006,-0.0045,-0.0042,-0.005,-0.0025,-0.0021,-0.002,0.0019,0.0024,-0.0003,-0.0002,0.0054,0.006,0.0065,0.0081,0.009,0.0093,0.0094,0.0149,0.0149,0.0149,0,0,0,0,0,0,-0.0069,-0.0068,-0.0046,-0.0051,-0.0047,-0.0025,-0.0024,-0.002,-0.0013,0.0021,0.0028,-0.0001,0.0054,0.0062,0.0084,0.0084,0.0094,0.0096,0.0149,0.0149,0.0149,0.0111,0,0,0,0,0,0,-0.007,-0.0068,-0.0072,-0.0052,-0.0047,-0.0041,-0.0024,-0.0019,-0.0013,-0.001,0.0025,0.0032,0.0055,0.008,0.0086,0.0087,0.0098,0.0149,0.0149,0.0149,0.0112,0.0109,0.0107,0,0,0,0,0,-0.0071,-0.0077,-0.0072,-0.0071,-0.0052,-0.0041,-0.0038,-0.002,-0.0013,-0.0013,0.0012,0.003,0.0085,0.0082,0.0089,0.0091,0.0149,0.0149,0.0149,0.0113,0.011,0.0107,0,0,0,0,0,0,-0.0082,-0.0074,-0.0069,-0.007,-0.0059,-0.0037,-0.0036,-0.0024,-0.0005,-0.0003,0.0031,0.0039,0.0058,0.008,0.0075,0.0108,0.012,0.0122,0.009,0.0088,0.0085,0.0077,0.01,0,0,0,0,0,-0.0088,-0.0093,-0.0079,-0.008,-0.0077,-0.0058,-0.0052,-0.0041,-0.0021,-0.0013,0.0012,0.0039,0.0064,0.0079,0.0103,0.012,0.0147,0.0126,0.0124,0.0122,0.0121,0.0162,0.0163,0.015,0.015,0.015,0,0,-0.0092,-0.0089,-0.0091,-0.0084,-0.0074,-0.0074,-0.0054,-0.0048,-0.0044,-0.0008,0.0005,0.0031,0.0066,0.0086,0.0097,0.0104,0.014,0.0122,0.012,0.012,0.0162,0.0164,0.0165,0.015,0.015,0.015,0,0,-0.0103,-0.0101,-0.0109,-0.0106,-0.0098,-0.0087,-0.0089,-0.007,-0.0058,-0.0044,-0.0015,0.0011,0.0044,0.0073,0.0091,0.0091,0.0124,0.0097,0.0082,0.0121,0.0123,0.0124,0.0157,0.0162,0.0098,0.0098,0.0098,0,-0.0103,-0.0119,-0.0108,-0.0115,-0.0119,-0.0097,-0.0107,-0.0089,-0.0065,-0.0056,-0.0045,0.0011,0.0039,0.0071,0.0071,0.0086,0.0111,0.0088,0.0118,0.012,0.0123,0.0156,0.0162,0.0096,0.0096,0.0096,0.0097,0,-0.0121,-0.0136,-0.0141,-0.0147,-0.0145,-0.0152,-0.0133,-0.0127,-0.0113,-0.0091,-0.006,-0.0017,0.0016,0.0031,0.0051,0.0082,0.0094,0.0108,0.0123,0.0122,0.0157,0.0164,0.0093,0.0094,0.0095,0.0095,0,0,-0.0116,-0.0148,-0.0151,-0.0173,-0.0168,-0.0173,-0.0167,-0.0156,-0.0154,-0.0116,-0.0102,-0.0052,-0.0025,-0.0002,0.0033,0.007,0.0107,0.0091,0.0094,0.012,0.019,0.0179,0.0186,0.0125,0.0126,0.0127,0.0207,0,-0.0134,-0.0173,-0.0176,-0.0211,-0.0233,-0.022,-0.022,-0.0203,-0.0179,-0.0157,-0.0099,-0.0071,-0.0037,-0.0022,0.0021,0.0085,0.0123,0.0083,0.0191,0.0195,0.0182,0.0193,0.013,0.0212,0.0214,0.0215,0.0216,0,-0.0151,-0.0182,-0.0226,-0.0267,-0.0273,-0.0284,-0.0292,-0.0286,-0.0241,-0.022,-0.0172,-0.0122,-0.0059,-0.0033,0.0082,0.0054,0.0116,0.0168,0.0172,0.0181,0.0197,0.0216,0.0229,0.0228,0.0227,0.0226,0.0225,0,-0.0175,-0.0218,-0.0264,-0.0276,-0.0308,-0.0323,-0.0333,-0.0307,-0.0306,-0.0255,-0.0241,-0.0154,-0.0112,-0.002,0.0089,0.0086,0.0214,0.0226,0.0278,0.0278,0.028,0.0278,0.0306,0.0306,0.0305,0.0305,0.0305,0,-0.0201,-0.0235,-0.0286,-0.0313,-0.0367,-0.0365,-0.0399,-0.0388,-0.0363,-0.0355,-0.0276,-0.0244,-0.0107,-0.0015,0.0081,0.0199,0.0212,0.0278,0.03,0.0262,0.0256,0.0285,0.0282,0.0308,0.0308,0.0307,0.0306,0,-0.0214,-0.0248,-0.031,-0.0365,-0.0385,-0.0422,-0.0459,-0.0472,-0.0441,-0.0425,-0.0409,-0.0304,-0.0182,-0.0044,0.0112,0.0184,0.03,0.0337,0.0283,0.03,0.034,0.0333,0.0405,0.0405,0.0405,0.0406,0.0406,0,-0.0224,-0.0259,-0.0352,-0.0405,-0.0435,-0.0489,-0.0523,-0.0516,-0.0518,-0.0459,-0.0446,-0.0329,-0.0245,-0.0031,0.0107,0.0295,0.0318,0.0372,0.0361,0.0337,0.0351,0.0344,0.0338,0.0406,0.0406,0.0406,0.0407,0,-0.0241,-0.0279,-0.0332,-0.0447,-0.051,-0.0568,-0.0605,-0.061,-0.0581,-0.0557,-0.0467,-0.0345,-0.0205,-0.0034,0.0112,0.0243,0.0334,0.0376,0.0376,0.0366,0.0339,0.0352,0.0345,0.0407,0.0407,0.0407,0.0407,0,-0.0246,-0.0294,-0.0382,-0.048,-0.0564,-0.0617,-0.0637,-0.0629,-0.062,-0.0539,-0.0512,-0.0354,-0.0257,-0.0061,0.0071,0.0203,0.0235,0.0269,0.0275,0.0276,0.0212,0.0158,0.0191,0,0,0,0,0,-0.0248,-0.0312,-0.0412,-0.0517,-0.06,-0.0641,-0.0677,-0.0678,-0.0646,-0.0588,-0.0544,-0.0411,-0.0196,-0.0104,0.0027,0.0071,0.025,0.0227,0.0289,0.0413,0.0412,0.0358,0,0,0,0,0,0,-0.0253,-0.0337,-0.0408,-0.0526,-0.0594,-0.0667,-0.0686,-0.0667,-0.0625,-0.0576,-0.0462,-0.039,-0.0183,-0.0268,0.0027,0.0068,0.0122,0.0332,0.0334,0.0413,0.0412,0.0412,0.0356,0,0,0,0,0]}]]